Weather in Vytegra

Russia / Vologda Oblast     61°00′22″N   36°26′58″E
temp.,
°C
wind,
m/s
gust,
m/s
humid.,
%
clouds,
%
prec.,
mm/h
press.,
hPa
HPBL,
m
11 may, tue
tue1100:00+10s4116792 0.0 1025296
03:00+8s4117686 0.0 1025251
06:00+10s3117599 0.0 1026276
09:00+16ssw485894 0.0 1026564
12:00+19ssw57475 0.0 10261231
15:00+21ssw474213 0.0 10251531
18:00+20s47496 0.0 1025930
21:00+14sse39755 0.0 1026154
12 may, wed
wed1200:00+12s3117918 0.0 1027214
03:00+10s38820 0.0 1027149
06:00+12s38765 0.0 1028197
09:00+17s34515 0.0 1027535
12:00+20sse24370 0.0 10261086
15:00+22sse24370 0.0 10251404
18:00+22se24470 0.0 1024673
21:00+15se36770 0.0 102497
13 may, thu
thu1300:00+13se37815 0.0 1024116
03:00+12se25855 0.0 102386
06:00+14se39793 0.0 1022244
09:00+19sse48635 0.0 1021702
12:00+21sse465472 0.0 10201602
15:00+21sse455338 0.1 10191540
18:00+20se36605 0.0 10171296
21:00+15ese27855 0.0 1016162
14 may, fri
fri1400:00+13se3109181 0.0 1015273
03:00+13sse3996100 0.6 1014361
06:00+13s38907 0.1 1015493
09:00+16ssw47685 0.1 1016842
12:00+19ssw464792 0.0 10161910
15:00+21s3639100 0.0 10152244
18:00+19sse3650100 0.0 1014563
21:00+14sse377824 0.0 1014174
15 may, sat
sat1500:00+12se278931 0.0 1014138
03:00+11se279299 0.0 1013138
06:00+13ese41092100 0.2 1011317
09:00+16se5108686 0.7 1010620
12:00+19se5873100 0.1 1008801
15:00+21sse4564100 0.1 10071081
18:00+18ssw1383100 3.5 1005171
21:00+16se2288100 7.0 100329